Regional Weather Roundup
Issued by NWS

Home | Current Version | Previous Version | Graphics & Text | Print | Product List | Glossary On
Versions: 1 2 3 4 5 6 7 8 9 10 11 12 13 14 15 16 17 18 19 20 21 22 23 24 25 26 27 28 29 30 31 32 33 34 35 36 37 38 39 40 41 42 43 44 45 46 47 48 49 50
496
ASUS43 KDMX 231401
RWRIA

WEATHER ROUNDUP FOR IOWA
NATIONAL WEATHER SERVICE DES MOINES IA
800 AM CST THU FEB 23 2017

NOTE: "FAIR" INDICATES FEW OR NO CLOUDS BELOW 12,000 FEET WITH NO
SIGNIFICANT WEATHER AND/OR OBSTRUCTIONS TO VISIBILITY.

* - THESE STATIONS ARE NOT NWS STATIONS...THUS NOT UNDER NWS
QUALITY CONTROL.  THEY ALSO DO NOT REPORT WEATHER SUCH
AS PRECIPITATION OR FOG.

IAZ001>003-012>014-020>022-031>034-043>046-231500-
   NORTHWEST IOWA

CITY           SKY/WX    TMP DP  RH WIND       PRES   REMARKS
CARROLL *      CLOUDY    37  36  93 NE13      29.84R WCI  29
CHEROKEE *     CLOUDY    34  33  94 NE6       29.86R WCI  29
DENISON *      CLOUDY    36  32  87 NE15G21   29.82S WCI  26
LE MARS *      CLOUDY    34  30  86 NE12      29.89R WCI  25
ORANGE CITY *  CLOUDY    32  28  86 NE9       29.88R WCI  24
SHELDON *      CLOUDY    32  32 100 NE16G24   29.87R WCI  21
SIOUX CITY     CLOUDY    37  32  82 NE10      29.87R WCI  30
SPENCER        CLOUDY    32  29  88 NE17      29.87R WCI  21
STORM LAKE *   CLOUDY    34  32  93 NE18      29.84R WCI  23
$$

IAZ055>058-069>071-079>083-090>094-231500-
   SOUTHWEST IOWA

CITY           SKY/WX    TMP DP  RH WIND       PRES   REMARKS
ATLANTIC *     CLOUDY    37  36  93 NE15      29.81R WCI  28
CLARINDA *     CLOUDY    39  39 100 NE15      29.79F WCI  31
COUNCIL BLFS * CLOUDY    36  36 100 NE18      29.80S WCI  25
CRESTON *      CLOUDY    37  37 100 NE17      29.80S FOG     WCI  28
HARLAN  *      CLOUDY    36  36 100 NE16G23   29.85R WCI  26
LAMONI         CLOUDY    39  37  92 NE17      29.76F WCI  30
RED OAK *      CLOUDY    37  36  93 NE15G22   29.80S WCI  28
SHENANDOAH *   CLOUDY    39  37  93 NE15      29.79R WCI  31
$$

IAZ047>049-059>061-072>074-084-231500-
   CENTRAL IOWA

CITY           SKY/WX    TMP DP  RH WIND       PRES   REMARKS
AMES           CLOUDY    38  36  92 NE9G21    29.83R WCI  31
ANKENY *       CLOUDY    39  36  87 N9        29.84R WCI  33
BOONE *        CLOUDY    37  37 100 NE10      29.82R WCI  30
CHARITON *     CLOUDY    39  37  93 NE10G17   29.81R WCI  32
DES MOINES     CLOUDY    40  36  86 NE9       29.83R WCI  34
GRINNELL*      CLOUDY    40  37  89 N9        29.81R WCI  33
KNOXVILLE *    CLOUDY    41  37  87 NE10      29.80R
MARSHALLTOWN   CLOUDY    38  36  92 N9        29.82R WCI  31
NEWTON *       CLOUDY    39  37  93 NE9       29.80R WCI  33
PELLA *        CLOUDY    40  37  89 N7        29.83R WCI  35
PERRY *        CLOUDY    38  35  90 NE5       29.84R WCI  34
$$

IAZ004>006-015-016-023>025-035-036-231500-
   NORTH CENTRAL IOWA

CITY           SKY/WX    TMP DP  RH WIND       PRES   REMARKS
ALGONA *       CLOUDY    34  34 100 N13       29.86R WCI  25
CLARION *      CLOUDY    36  36 100 NE15      29.83R WCI  26
ESTHERVILLE    CLOUDY    30  29  96 NE20      29.85S WCI  17
FORT DODGE *   CLOUDY    36  28  75 N10       29.85R WCI  28
MASON CITY     CLOUDY    35  32  88 N12       29.85S WCI  27
FOREST CITY *  CLOUDY    34  32  93 N10       29.85R WCI  26
WEBSTER CITY * CLOUDY    37  34  87 N9        29.82R WCI  31
IOWA FALLS *   CLOUDY    37  34  87 NE15      29.84R WCI  28
$$

IAZ007>011-017>019-026>030-037>042-050>054-066-231500-
   NORTHEAST IOWA

CITY           SKY/WX    TMP DP  RH WIND       PRES   REMARKS
CEDAR RAPIDS   CLOUDY    41  38  89 N18       29.77S
CHARLES CITY * CLOUDY    37  37 100 N13       29.84R WCI  29
CLINTON *      SUNNY     41  39  93 N10       29.78R
DECORAH *      CLOUDY    39  32  75 NE8       29.82S WCI  34
DUBUQUE        SUNNY     41  36  82 N13       29.78R
MONTICELLO *   CLOUDY    41  37  87 N8        29.81R
OELWEIN *      CLOUDY    39  37  93 N9        29.82R WCI  33
WATERLOO       CLOUDY    39  34  82 N10       29.82R WCI  32
$$

IAZ064-065-067-068-078-231500-
   EAST CENTRAL IOWA

CITY           SKY/WX    TMP DP  RH WIND       PRES   REMARKS
DAVENPORT      SUNNY     42  38  85 N7        29.78R
IOWA CITY      CLOUDY    44  37  76 N9        29.80R
MUSCATINE *    CLOUDY    43  39  87 N3        29.80R
QUAD CITIES    SUNNY     43  39  86 N8        29.77R
$$

IAZ062-063-075>077-085>089-095>099-231500-
   SOUTHEAST IOWA

CITY           SKY/WX    TMP DP  RH WIND       PRES   REMARKS
BURLINGTON     CLOUDY    43  41  93 N14       29.80R
FAIRFIELD *    CLOUDY    43  39  87 NE8       29.80R
KEOKUK *       CLOUDY    43  41  93 N8        29.80R
CENTERVILLE *  CLOUDY    39  39 100 N5        29.81R
OTTUMWA        CLOUDY    42  39  89 N8        29.80R
WASHINGTON *   PTSUNNY   43  39  87 N7        29.81R
$$

ABBREVIATIONS USED IN REMARKS
   TC - TEMPERATURES IN CELSIUS
  WCI - WIND CHILL INDEX
   HX - HEAT INDEX
  VSB - VISIBILITY
$$





USA.gov is the U.S. government's official web portal to all federal, state and local government web resources and services.